This is the latest recevied weather packets stored in our database for station/object K8CWG. If no packets are shown the sender has not sent any weather packets the latest 10 day(s).
| Time | Temp. | Humidity | Pressure | Rain* | Wind** | Luminosity | Snow |
|---|---|---|---|---|---|---|---|
| 1787772601 | 28.89° C | 58% | 1012.8 hPa | 0 mm | - | - | - |
| 1787771701 | 28.89° C | 58% | 1013 hPa | 0 mm | - | - | - |
| 1787770806 | 28.33° C | 57% | 1013.1 hPa | 0 mm | - | - | - |
| 1787769900 | 28.33° C | 57% | 1013.4 hPa | 0 mm | - | - | - |
| 1787768101 | 28.33° C | 57% | 1013.7 hPa | 0 mm | - | - | - |
| 1787767203 | 28.33° C | 58% | 1013.8 hPa | 0 mm | - | - | - |
| 1787766301 | 27.78° C | 58% | 1013.8 hPa | 0 mm | - | - | - |
| 1787765401 | 27.22° C | 58% | 1013.9 hPa | 0 mm | - | - | - |
| 1787764502 | 27.22° C | 57% | 1014 hPa | 0 mm | - | - | - |
| 1787763603 | 27.22° C | 59% | 1014.1 hPa | 0 mm | - | - | - |
| 1787761801 | 26.67° C | 62% | 1014.3 hPa | 0 mm | - | - | - |
| 1787760902 | 26.11° C | 65% | 1014.4 hPa | 0 mm | - | - | - |
| 1787760002 | 25.56° C | 64% | 1014.5 hPa | 0 mm | - | - | - |
| 1787758202 | 25° C | 67% | 1014.7 hPa | 0 mm | - | - | - |
| 1787757302 | 24.44° C | 69% | 1014.8 hPa | 0 mm | - | - | - |
| 1787756402 | 24.44° C | 68% | 1014.8 hPa | 0 mm | - | - | - |
| 1787753702 | 23.33° C | 73% | 1014.7 hPa | 0 mm | - | - | - |
| 1787752804 | 22.78° C | 74% | 1014.8 hPa | 0 mm | - | - | - |
| 1787751002 | 21.11° C | 79% | 1014.8 hPa | 0 mm | - | - | - |
| 1787750101 | 20.56° C | 80% | 1014.9 hPa | 0 mm | - | - | - |
| 1787749202 | 18.89° C | 83% | 1015 hPa | 0 mm | - | - | - |
| 1787748301 | 18.33° C | 86% | 1014.9 hPa | 0 mm | - | - | - |
| 1787747401 | 17.78° C | 87% | 1015.1 hPa | 0 mm | - | - | - |
| 1787746501 | 16.67° C | 89% | 1015.2 hPa | 0 mm | - | - | - |
| 1787745602 | 16.11° C | 90% | 1015.4 hPa | 0 mm | - | - | - |
* Rain latest hour (hover to see other rain measurements)
** Current wind speed in m/s (hover to see current wind gust speed)